This is the latest recevied weather packets stored in our database for station/object W4SKW. If no packets are shown the sender has not sent any weather packets the latest 10 day(s).
| Time | Temp. | Humidity | Pressure | Rain* | Wind** | Luminosity | Snow |
|---|---|---|---|---|---|---|---|
| 1777909832 | 20.56° C | 58% | 1018.9 hPa | 0 mm | - | 630 W/m² | - |
| 1777909527 | 20.56° C | 60% | 1018.8 hPa | 0 mm | - | 660 W/m² | - |
| 1777909225 | 20° C | 60% | 1018.8 hPa | 0 mm | - | 645 W/m² | - |
| 1777908894 | 18.33° C | 63% | 1018.9 hPa | 0 mm | - | 206 W/m² | - |
| 1777908591 | 18.33° C | 63% | 1018.9 hPa | 0 mm | - | 206 W/m² | - |
| 1777908288 | 18.33° C | 61% | 1019.1 hPa | 0 mm | - | 552 W/m² | - |
| 1777907984 | 18.33° C | 64% | 1019.2 hPa | 0 mm | - | 95 W/m² | - |
| 1777907680 | 17.78° C | 65% | 1019.1 hPa | 0 mm | - | 103 W/m² | - |
| 1777907376 | 17.78° C | 65% | 1019 hPa | 0 mm | - | 128 W/m² | - |
| 1777907072 | 17.22° C | 65% | 1019.3 hPa | 0 mm | - | 313 W/m² | - |
| 1777906770 | 16.67° C | 66% | 1019.4 hPa | 0 mm | - | 88 W/m² | - |
| 1777906467 | 16.67° C | 68% | 1019.4 hPa | 0 mm | - | 71 W/m² | - |
| 1777906163 | 16.11° C | 67% | 1019.5 hPa | 0 mm | - | 61 W/m² | - |
| 1777905848 | 15.56° C | 70% | 1019.4 hPa | 0 mm | - | 53 W/m² | - |
| 1777905545 | 15.56° C | 70% | 1019.4 hPa | 0 mm | - | 53 W/m² | - |
| 1777905241 | 15° C | 72% | 1019.5 hPa | 0 mm | - | 86 W/m² | - |
| 1777904939 | 15° C | 72% | 1019.6 hPa | 0 mm | - | 81 W/m² | - |
| 1777904636 | 15° C | 79% | 1019.5 hPa | 0 mm | - | 213 W/m² | - |
| 1777904328 | 13.33° C | 75% | 1019.7 hPa | 0 mm | - | 63 W/m² | - |
| 1777904025 | 13.33° C | 75% | 1019.7 hPa | 0 mm | - | 63 W/m² | - |
| 1777903721 | 13.33° C | 81% | 1019.8 hPa | 0 mm | - | 77 W/m² | - |
| 1777903417 | 13.33° C | 77% | 1019.8 hPa | 0 mm | - | 84 W/m² | - |
| 1777903114 | 12.78° C | 78% | 1019.9 hPa | 0 mm | - | 73 W/m² | - |
| 1777902810 | 12.78° C | 78% | 1019.8 hPa | 0 mm | - | 55 W/m² | - |
| 1777902508 | 12.22° C | 81% | 1019.8 hPa | 0 mm | - | 55 W/m² | - |
* Rain latest hour (hover to see other rain measurements)
** Current wind speed in m/s (hover to see current wind gust speed)